| time (UTC) | temp F | wind direction | speed MPH | gust MPH | rain 1hr in | rain 24hr in | rain mn in | humidity % | barometer mb |
| 20260904103841 | 64 | 316 | 2.0 | 5.0 | 0.00 | 0.03 | 0.00 | 97 | 1016.0 |
| 20260904102840 | 64 | 305 | 2.0 | 5.0 | 0.00 | 0.03 | 0.00 | 97 | 1015.9 |
| 20260904101840 | 64 | 307 | 1.0 | 8.0 | 0.00 | 0.03 | 0.00 | 97 | 1015.9 |
| 20260904100840 | 64 | 280 | 3.0 | 8.0 | 0.00 | 0.03 | 0.00 | 97 | 1015.7 |
| 20260904094840 | 65 | 298 | 3.0 | 7.0 | 0.00 | 0.03 | 0.00 | 98 | 1015.9 |
| 20260904092839 | 65 | 300 | 4.0 | 6.0 | 0.00 | 0.03 | 0.00 | 98 | 1015.8 |
| 20260904090839 | 65 | 291 | 1.0 | 6.0 | 0.00 | 0.03 | 0.00 | 99 | 1015.8 |
| 20260904085839 | 65 | 273 | 3.0 | 7.0 | 0.00 | 0.03 | 0.00 | 99 | 1015.6 |
| 20260904084839 | 66 | 304 | 4.0 | 8.0 | 0.00 | 0.03 | 0.00 | 100 | 1015.5 |
| 20260904083839 | 66 | 266 | 6.0 | 8.0 | 0.00 | 0.03 | 0.00 | 100 | 1015.4 |
| 20260904081838 | 66 | 298 | 2.0 | 7.0 | 0.00 | 0.03 | 0.00 | 100 | 1015.3 |
| 20260904080838 | 66 | 306 | 4.0 | 7.0 | 0.00 | 0.03 | 0.00 | 100 | 1015.2 |
| 20260904075838 | 66 | 300 | 1.0 | 8.0 | 0.00 | 0.03 | 0.00 | 100 | 1015.1 |
| 20260904073837 | 66 | 318 | 3.0 | 7.0 | 0.00 | 0.03 | 0.00 | 100 | 1015.1 |
| 20260904072837 | 65 | 318 | 3.0 | 4.0 | 0.00 | 0.03 | 0.00 | 100 | 1015.0 |
| 20260904071837 | 64 | 182 | 0.0 | 2.0 | 0.00 | 0.03 | 0.00 | 100 | 1014.8 |
| 20260904065837 | 65 | 187 | 1.0 | 2.0 | 0.00 | 0.03 | 0.00 | 100 | 1014.8 |
| 20260904064837 | 64 | 187 | 0.0 | 1.0 | 0.00 | 0.04 | 0.00 | 100 | 1014.9 |
| 20260904063836 | 64 | 187 | 0.0 | 1.0 | 0.00 | 0.04 | 0.00 | 100 | 1014.8 |
| 20260904062836 | 65 | 187 | 0.0 | 1.0 | 0.00 | 0.04 | 0.00 | 100 | 1015.0 |
| 20260904061836 | 65 | 187 | 0.0 | 2.0 | 0.00 | 0.04 | 0.00 | 100 | 1015.2 |
| 20260904060836 | 65 | 187 | 0.0 | 1.0 | 0.00 | 0.04 | 0.00 | 100 | 1015.2 |
| 20260904055836 | 65 | 187 | 0.0 | 0.0 | 0.00 | 0.04 | 0.00 | 99 | 1015.4 |
| 20260904054835 | 65 | 187 | 0.0 | 3.0 | 0.00 | 0.04 | 0.00 | 100 | 1015.6 |
| 20260904053835 | 66 | 187 | 2.0 | 3.0 | 0.00 | 0.04 | 0.00 | 100 | 1015.5 |
| 20260904052835 | 66 | 186 | 1.0 | 1.0 | 0.00 | 0.05 | 0.00 | 100 | 1015.6 |
| 20260904051835 | 66 | 186 | 0.0 | 0.0 | 0.00 | 0.07 | 0.00 | 100 | 1015.8 |
| 20260904045834 | 67 | 186 | 0.0 | 2.0 | 0.01 | 0.10 | 0.00 | 100 | 1015.9 |
| 20260904044834 | 67 | 186 | 1.0 | 3.0 | 0.01 | 0.10 | 0.00 | 100 | 1015.9 |
| 20260904042834 | 67 | 198 | 1.0 | 2.0 | 0.01 | 0.10 | 0.00 | 100 | 1016.1 |
| 20260904040903 | 67 | 198 | 1.0 | 2.0 | 0.02 | 0.10 | 0.00 | 100 | 1015.8 |
| 20260904035903 | 67 | 198 | 0.0 | 3.0 | 0.01 | 0.09 | 0.09 | 100 | 1015.5 |
| 20260904034903 | 67 | 198 | 0.0 | 1.0 | 0.01 | 0.09 | 0.09 | 99 | 1015.4 |
| 20260904033903 | 67 | 198 | 0.0 | 1.0 | 0.01 | 0.09 | 0.09 | 99 | 1015.4 |
| 20260904032903 | 67 | 198 | 0.0 | 3.0 | 0.01 | 0.09 | 0.09 | 99 | 1015.3 |
| 20260904031903 | 67 | 188 | 2.0 | 3.0 | 0.00 | 0.09 | 0.08 | 99 | 1015.5 |
| 20260904030902 | 67 | 188 | 0.0 | 1.0 | 0.00 | 0.10 | 0.08 | 99 | 1015.5 |
| 20260904025902 | 67 | 188 | 0.0 | 2.0 | 0.00 | 0.10 | 0.08 | 99 | 1015.5 |
| 20260904023902 | 67 | 188 | 1.0 | 3.0 | 0.00 | 0.13 | 0.08 | 99 | 1015.6 |
| 20260904022902 | 67 | 188 | 1.0 | 2.0 | 0.00 | 0.14 | 0.08 | 99 | 1015.7 |
| 20260904021902 | 68 | 188 | 1.0 | 3.0 | 0.00 | 0.15 | 0.08 | 99 | 1015.9 |
| 20260904020901 | 68 | 188 | 2.0 | 3.0 | 0.00 | 0.18 | 0.08 | 98 | 1015.9 |
| 20260904015901 | 68 | 188 | 2.0 | 4.0 | 0.00 | 0.20 | 0.08 | 98 | 1016.0 |
| 20260904014901 | 68 | 219 | 2.0 | 3.0 | 0.00 | 0.20 | 0.08 | 98 | 1015.9 |
| 20260904013901 | 68 | 221 | 0.0 | 1.0 | 0.00 | 0.22 | 0.08 | 98 | 1016.1 |
| 20260904012901 | 68 | 221 | 0.0 | 3.0 | 0.00 | 0.29 | 0.08 | 98 | 1016.1 |
| 20260904011901 | 68 | 229 | 2.0 | 4.0 | 0.00 | 0.34 | 0.08 | 97 | 1016.0 |
| 20260904010901 | 69 | 325 | 1.0 | 2.0 | 0.00 | 0.36 | 0.08 | 97 | 1016.1 |
| 20260904005900 | 69 | 329 | 0.0 | 3.0 | 0.00 | 0.38 | 0.08 | 97 | 1016.2 |
| 20260904002900 | 69 | 165 | 0.0 | 2.0 | 0.00 | 0.39 | 0.08 | 96 | 1016.0 |
| 20260904000900 | 70 | 165 | 0.0 | 4.0 | 0.00 | 0.39 | 0.08 | 95 | 1015.8 |
| 20260903235859 | 71 | 165 | 2.0 | 5.0 | 0.00 | 0.39 | 0.08 | 94 | 1015.7 |
| 20260903234859 | 71 | 165 | 4.0 | 5.0 | 0.00 | 0.39 | 0.08 | 93 | 1015.7 |
| 20260903233859 | 71 | 182 | 4.0 | 4.0 | 0.00 | 0.39 | 0.08 | 92 | 1015.6 |
| 20260903232859 | 71 | 196 | 2.0 | 4.0 | 0.00 | 0.39 | 0.08 | 92 | 1015.5 |
| 20260903231859 | 72 | 258 | 2.0 | 3.0 | 0.00 | 0.39 | 0.08 | 92 | 1015.9 |
| 20260903230859 | 72 | 265 | 2.0 | 3.0 | 0.00 | 0.39 | 0.08 | 92 | 1015.8 |
| 20260903225858 | 72 | 282 | 0.0 | 2.0 | 0.00 | 0.39 | 0.08 | 91 | 1015.6 |
| 20260903224858 | 73 | 282 | 0.0 | 1.0 | 0.00 | 0.39 | 0.08 | 92 | 1015.4 |
| 20260903222858 | 74 | 282 | 0.0 | 3.0 | 0.00 | 0.39 | 0.08 | 89 | 1015.4 |
| 20260903221858 | 75 | 335 | 1.0 | 1.0 | 0.00 | 0.39 | 0.08 | 89 | 1015.4 |
| 20260903215857 | 77 | 335 | 0.0 | 1.0 | 0.00 | 0.39 | 0.08 | 85 | 1015.6 |
| 20260903214857 | 76 | 335 | 0.0 | 2.0 | 0.00 | 0.39 | 0.08 | 87 | 1015.6 |
| 20260903213857 | 76 | 335 | 1.0 | 2.0 | 0.00 | 0.39 | 0.08 | 85 | 1015.5 |
| 20260903212857 | 76 | 335 | 0.0 | 1.0 | 0.00 | 0.39 | 0.08 | 86 | 1015.5 |
| 20260903211856 | 76 | 335 | 1.0 | 1.0 | 0.00 | 0.39 | 0.08 | 85 | 1015.7 |
| 20260903205856 | 76 | 335 | 1.0 | 4.0 | 0.00 | 0.39 | 0.08 | 84 | 1015.7 |
| 20260903204856 | 77 | 296 | 1.0 | 2.0 | 0.00 | 0.39 | 0.08 | 84 | 1016.0 |
| 20260903203856 | 76 | 296 | 0.0 | 4.0 | 0.00 | 0.39 | 0.08 | 81 | 1016.0 |
| 20260903202856 | 77 | 296 | 2.0 | 6.0 | 0.00 | 0.39 | 0.08 | 79 | 1016.0 |
| 20260903201855 | 78 | 285 | 2.0 | 8.0 | 0.00 | 0.39 | 0.08 | 77 | 1015.9 |
| 20260903200856 | 78 | 332 | 4.0 | 9.0 | 0.00 | 0.39 | 0.08 | 77 | 1015.9 |
| 20260903195855 | 78 | 294 | 4.0 | 8.0 | 0.00 | 0.39 | 0.08 | 76 | 1015.8 |
| 20260903194855 | 77 | 202 | 2.0 | 9.0 | 0.00 | 0.39 | 0.08 | 76 | 1015.8 |
| 20260903193855 | 78 | 289 | 5.0 | 10.0 | 0.00 | 0.39 | 0.08 | 76 | 1015.9 |
| 20260903191855 | 78 | 284 | 1.0 | 7.0 | 0.00 | 0.39 | 0.08 | 75 | 1016.1 |
| 20260903185855 | 77 | 257 | 2.0 | 9.0 | 0.00 | 0.39 | 0.08 | 72 | 1016.3 |
| 20260903184854 | 78 | 250 | 2.0 | 10.0 | 0.00 | 0.39 | 0.08 | 73 | 1016.4 |
| 20260903183854 | 79 | 263 | 6.0 | 9.0 | 0.00 | 0.39 | 0.08 | 69 | 1016.5 |
| 20260903182854 | 79 | 248 | 2.0 | 6.0 | 0.00 | 0.39 | 0.08 | 76 | 1016.5 |
| 20260903181854 | 77 | 313 | 4.0 | 11.0 | 0.00 | 0.39 | 0.08 | 74 | 1016.4 |
| 20260903180854 | 77 | 332 | 4.0 | 10.0 | 0.00 | 0.39 | 0.08 | 78 | 1016.4 |
| 20260903174853 | 77 | 312 | 10.0 | 11.0 | 0.00 | 0.39 | 0.08 | 81 | 1016.5 |
| 20260903173853 | 76 | 305 | 1.0 | 10.0 | 0.00 | 0.39 | 0.08 | 83 | 1016.6 |
| 20260903172853 | 76 | 299 | 3.0 | 10.0 | 0.00 | 0.39 | 0.08 | 82 | 1016.6 |
| 20260903170852 | 75 | 323 | 4.0 | 8.0 | 0.00 | 0.39 | 0.08 | 87 | 1016.5 |
| 20260903165852 | 75 | 288 | 3.0 | 9.0 | 0.01 | 0.39 | 0.08 | 87 | 1016.8 |
| 20260903163852 | 74 | 292 | 3.0 | 4.0 | 0.01 | 0.39 | 0.08 | 92 | 1016.9 |
| 20260903162852 | 73 | 279 | 1.0 | 8.0 | 0.01 | 0.39 | 0.08 | 92 | 1017.1 |
| 20260903161851 | 73 | 315 | 2.0 | 8.0 | 0.01 | 0.39 | 0.08 | 94 | 1017.1 |
| 20260903160852 | 72 | 355 | 3.0 | 9.0 | 0.01 | 0.39 | 0.08 | 96 | 1017.1 |
| 20260903155851 | 71 | 345 | 2.0 | 7.0 | 0.00 | 0.38 | 0.07 | 98 | 1017.1 |
| 20260903154851 | 70 | 275 | 3.0 | 11.0 | 0.00 | 0.38 | 0.07 | 97 | 1017.2 |
| 20260903153851 | 70 | 286 | 1.0 | 6.0 | 0.00 | 0.39 | 0.07 | 97 | 1017.0 |
| 20260903152850 | 70 | 281 | 1.0 | 5.0 | 0.00 | 0.41 | 0.07 | 96 | 1017.1 |
| 20260903151851 | 70 | 288 | 1.0 | 8.0 | 0.00 | 0.42 | 0.07 | 96 | 1017.1 |
| 20260903150851 | 70 | 330 | 2.0 | 5.0 | 0.00 | 0.45 | 0.07 | 96 | 1017.1 |
| 20260903145850 | 70 | 355 | 0.0 | 4.0 | 0.00 | 0.50 | 0.07 | 96 | 1017.0 |
| 20260903144850 | 70 | 340 | 1.0 | 4.0 | 0.00 | 0.73 | 0.07 | 96 | 1017.0 |
| 20260903143850 | 70 | 239 | 0.0 | 8.0 | 0.00 | 0.90 | 0.07 | 95 | 1016.9 |
| 20260903142850 | 70 | 99 | 0.0 | 3.0 | 0.00 | 0.97 | 0.07 | 96 | 1016.8 |
| 20260903140849 | 70 | 175 | 4.0 | 6.0 | 0.00 | 1.37 | 0.07 | 96 | 1016.9 |
| 20260903135849 | 70 | 221 | 5.0 | 8.0 | 0.00 | 1.56 | 0.07 | 96 | 1016.7 |
| 20260903134849 | 69 | 185 | 5.0 | 7.0 | 0.00 | 1.70 | 0.07 | 96 | 1016.6 |
| 20260903133849 | 69 | 185 | 3.0 | 5.0 | 0.00 | 1.72 | 0.07 | 96 | 1016.5 |
| 20260903132849 | 69 | 201 | 2.0 | 6.0 | 0.00 | 1.72 | 0.07 | 96 | 1016.7 |
| 20260903131849 | 69 | 200 | 4.0 | 7.0 | 0.00 | 1.72 | 0.07 | 96 | 1016.6 |
| 20260903130848 | 69 | 173 | 3.0 | 9.0 | 0.00 | 1.72 | 0.07 | 96 | 1016.8 |
| 20260903124848 | 69 | 210 | 3.0 | 8.0 | 0.00 | 1.72 | 0.07 | 97 | 1017.0 |
| 20260903120847 | 68 | 197 | 6.0 | 8.0 | 0.00 | 1.72 | 0.07 | 97 | 1016.9 |
| 20260903115847 | 68 | 218 | 4.0 | 9.0 | 0.00 | 1.72 | 0.07 | 97 | 1016.8 |
| 20260903114847 | 68 | 193 | 4.0 | 9.0 | 0.00 | 1.72 | 0.07 | 96 | 1016.7 |
| 20260903112847 | 68 | 227 | 5.0 | 10.0 | 0.00 | 1.72 | 0.07 | 96 | 1016.4 |
| 20260903111846 | 68 | 192 | 5.0 | 11.0 | 0.00 | 1.72 | 0.07 | 97 | 1016.4 |
| 20260903110846 | 68 | 178 | 8.0 | 10.0 | 0.00 | 1.72 | 0.07 | 96 | 1016.2 |
| 20260903105846 | 67 | 192 | 6.0 | 10.0 | 0.00 | 1.72 | 0.07 | 97 | 1016.1 |
| 20260903104846 | 67 | 211 | 4.0 | 9.0 | 0.00 | 1.72 | 0.07 | 97 | 1016.2 |